www.pogodaiklimat.ru

Погода и климат >> Архив погоды >> Мексика >> Manzanillo


ПОГОДА в Manzanillo

  • Прогноз погоды в Manzanillo
  • Монитор погоды в Manzanillo
  • Климат города

АРХИВ ПОГОДЫ в Manzanillo

Время (UTC), дата Ветер
(напр.,м/с)
 
Видим.   Явления Облачность Т
(С)
Тd
(С)
f
(%)
Тe
(С)
Тes
(С)
Комфортность P
(гПа)
Po
(гПа)
Тmin
(С)
Tmax
(С)
R
(мм)
R24
(мм)
S
(см)
09 18.04 штиль 0 6000 м мгла {туман} ясно +24.0 +21.2 84 +30 +30 очень
душно
1013.1 1012.7
12 18.04 штиль 0 6000 м мгла {туман} ясно +21.4 +18.6 84 +26 +26 душно 1012.2 1011.8 +21.4 +31.4
15 18.04 СВ 2 7000 м мгла {туман} ясно +24.6 +17.8 66 +29 +35 душно 1014.9 1014.5
18 18.04 ЮЗ 2 7000 м мгла {туман} ясно +28.8 +22.2 68 +38 +58 опасность
солнечного
удара
1013.9 1013.5 +20.9 +29.9
21 18.04 ЮЗ 4 6000 м мгла {туман} ясно +26.8 +21.2 71 +34 +45 очень
душно
1011.2 1010.8
00 19.04 ЮЗ 4 6000 м мгла {туман} 1/0
[Ci fib]
+26.0 +20.9 74 +33 +34 очень
душно
1008.9 1008.5 +20.9 +29.9
03 19.04 З 2 6000 м мгла {туман} ясно +23.9 +19.1 75 +29 +29 душно 1010.0 1009.6
06 19.04 В 1 6000 м мгла {туман} ясно +22.6 +20.3 87 +29 +29 очень
душно
1012.3 1011.9 +20.9 +29.9
09 19.04 штиль 0 6000 м мгла {туман} ясно +20.4 +18.9 91 +24 +24 комфорт 1012.1 1011.7
12 19.04 штиль 0 6000 м мгла {туман} ясно +19.9 +17.0 83 +22 +22 комфорт 1014.0 1013.6 +19.9 +29.9
15 19.04 штиль 0 6000 м мгла {туман} ясно +24.4 +14.5 54 +27 +36 жарко 1014.7 1014.3
18 19.04 Ю 2 6000 м мгла {туман} 1/0
[Ci fib]
+28.2 +20.9 65 +35 +56 опасность
солнечного
удара
1015.1 1014.7 +19.6 +29.9
21 19.04 З 3 6000 м мгла {туман} ясно +27.5 +20.0 64 +34 +48 очень
душно
1011.7 1011.3
00 20.04 ЮЗ 3 6000 м мгла {туман} ясно +25.7 +20.8 74 +32 +34 очень
душно
1010.8 1010.4 +19.6 +29.9
03 20.04 З 1 6000 м мгла {туман} ясно +23.6 +20.6 83 +29 +29 душно 1012.6 1012.2
06 20.04 СВ 2 6000 м мгла {туман} ясно +22.0 +16.2 70 +26 +26 душно 1013.7 1013.3 +19.6 +29.9
09 20.04 штиль 0 6000 м мгла {туман} ясно +20.6 +17.3 81 +24 +24 комфорт 1013.0 1012.6
12 20.04 штиль 0 6000 м мгла {туман} ясно +20.3 +14.0 67 +22 +22 комфорт 1012.1 1011.7 +20.3 +29.9
15 20.04 штиль 0 6000 м мгла {туман} ясно +23.6 +20 +29 1012.8 1012.4
18 20.04 Ю 3 6000 м мгла {туман} ясно +27.6 +21.8 71 +36 +53 опасность
солнечного
удара
1012.6 1012.2 +19.2 +29.2
21 20.04 З 4 6000 м мгла {туман} 1/0
[Ci fib]
+28.7 +24 +35 комфорт 1011.8 1011.4
00 21.04 З 2 6000 м мгла {туман} 1/0
[Ci fib]
+27.8 +23.7 78 +38 +40 очень
душно
1011.5 1011.1 +19.2 +30.0
03 21.04 С 2 6000 м мгла {туман} ясно +24.9 +21.3 80 +31 +31 очень
душно
1012.6 1012.2
06 21.04 штиль 0 6000 м мгла {туман} ясно +23.5 +21.1 86 +30 +30 очень
душно
1013.6 1013.2 +19.2 +30.0
09 21.04 С 2 6000 м мгла {туман} ясно +22.0 +19.4 85 +27 +27 душно 1013.3 1012.9
12 21.04 штиль 0 6000 м мгла {туман} ясно +21.2 +16.2 73 +25 +25 комфорт 1012.5 1012.1 +21.2 +30.0
15 21.04 С 1 6000 м мгла {туман} ясно +23.0 +17.0 69 +28 +36 душно 1013.8 1013.4
18 21.04 ЮЗ 3 6000 м мгла {туман} 4/0
[Ci fib]
+28.4 +23.8 76 +39 +55 опасность
солнечного
удара
1013.8 1013.4 +20.8 +28.6
21 21.04 З 3 6000 м мгла {туман} ясно +28.0 +22.2 71 +37 +50 очень
душно
1010.6 1010.2
00 22.04 ЮЗ 4 6000 м мгла {туман} ясно +26.6 +21.0 71 +33 +35 очень
душно
1009.8 1009.4 +20.8 +29.0
03 22.04 З 2 6000 м мгла {туман} ясно +24.5 +21.3 82 +31 +31 очень
душно
1010.8 1010.4
09 22.04 штиль 0 6000 м мгла {туман} ясно +21.9 +18.8 83 +27 +27 душно 1009.5 1008.9
12 22.04 штиль 0 6000 м мгла {туман} ясно +21.2 +18.1 82 +25 +25 комфорт 1008.7 1008.3 +21.2 +29.0
15 22.04 В 2 7000 м мгла {туман} ясно +24.8 +20.4 77 +31 +37 очень
душно
1012.4 1012.0
18 22.04 Ю 3 6000 м мгла {туман} ясно +28.2 +22.7 72 +37 +55 опасность
солнечного
удара
1012.7 1012.3 +20.5 +29.1
21 22.04 ЮЗ 3 6000 м мгла {туман} ясно +28.8 +23.7 74 +39 +53 опасность
солнечного
удара
1010.5 1010.1
00 23.04 З 4 6000 м мгла {туман} 3/0
[Ci fib]
+27.0 +22.3 75 +35 +36 очень
душно
1009.0 1008.6 +20.5 +30.0
03 23.04 З 2 6000 м мгла {туман} ясно +24.7 +22.1 85 +32 +32 очень
душно
1010.1 1009.7
06 23.04 штиль 0 6000 м мгла {туман} ясно +24.2 +21.0 82 +30 +30 очень
душно
1011.1 1010.7 +20.5 +30.0
09 23.04 штиль 0 6000 м мгла {туман} ясно +22.9 +20.5 86 +30 +30 очень
душно
1010.6 1010.2
12 23.04 штиль 0 6000 м мгла {туман} ясно +22.7 +19.5 82 +29 +29 очень
душно
1010.3 1009.9 +22.6 +30.0
15 23.04 штиль 0 7000 м мгла {туман} 9/0
[Ci fib]
+25.5 +20.9 76 +32 +39 очень
душно
1012.5 1012.1
18 23.04 Ю 3 7000 м мгла {туман} 3/0
[Ci fib]
+29.1 +23.6 72 +40 +56 опасность
солнечного
удара
1011.3 1010.9 +21.9 +30.4
21 23.04 Ю 3 6000 м мгла {туман} 3/0
[Ci sp]
+29.5 +23.6 71 +40 +53 опасность
солнечного
удара
1011.2 1010.8
00 24.04 З 1 6000 м мгла {туман} 4/0
[Cs]
+28.3 +22.5 71 +37 +39 очень
душно
1011.5 1011.1 +21.9 +30.4
03 24.04 штиль 0 6000 м мгла {туман} ясно +25.2 +22.7 86 +33 +33 очень
душно
1013.7 1013.3
12 24.04 С 1 6000 м мгла {туман} ясно +22.2 +18.8 81 +28 +28 душно 1011.3 1010.9 +22.2 +30.4
15 24.04 СВ 1 7000 м мгла {туман} 9/9 600 м
[Sc]
+25.0 +20.3 75 +31 +32 очень
душно
1013.6 1013.2
18 24.04 ЮЗ 2 7000 м мгла {туман} 1/1 600 м
[Sc]
+29.6 +22.2 64 +38 +57 опасность
солнечного
удара
1014.7 1014.3 +20.1 +30.5
21 24.04 ЮЗ 3 6000 м мгла {туман} ясно +29.9 +21.8 62 +38 +52 опасность
солнечного
удара
1012.3 1011.9
00 25.04 З 3 6000 м мгла {туман} 8/0 2000 м
[Ac lent Cs]
+27.8 +22.3 72 +36 +37 очень
душно
1011.1 1010.7 +20.1 +31.1
03 25.04 З 3 6000 м мгла {туман} ясно +25.2 +23.0 88 +34 +34 очень
душно
1012.0 1011.6

 

Местоположение метеостанции Manzanillo (Мексика): широта 19.05 долгота -104.30 высота над уровнем моря 3 м.

В архиве по умолчанию представлена погода в Manzanillo за последнюю неделю. Архивные данные за месяц целиком и за предыдущие месяцы, начиная с января 2011 года, Вы можете получить, выбрав интересующий диапазон дат из раскрывающегося списка и нажав кнопку "Ввод!".

Внимание! Время в таблицах - всемирное. Для получения местного времени необходимо прибавить поправку, которая в Manzanillo равна -6 ч.

Смотрите также архив погоды в соседних городах и на ближайших метеорологических станциях:

Погода в Colima (Мексика) (88 км)
Погода в Ciudad Guzman (Мексика) (120 км)
Погода в Guadalajara (Мексика) (208 км)
Погода в Zamora (Мексика) (234 км)
Погода в Tepic (Мексика) (280 км)
Погода в Morelia (Мексика) (343 км)
Погода в Colotlan (Мексика) (356 км)
Погода в Lagos De Moreno (Мексика) (357 км)
Погода в Aguascalientes (Мексика) (377 км)
Погода в Huejucar (Мексика) (383 км)

Пояснения к столбцам:

Ветер - указаны скорость ветра в м/с - средняя за 10 мин, порывы в срок и между сроками (в фигурных скобках) и направление, откуда дует ветер: С - северный, СВ - северо-восточный, В - восточный, ЮВ - юго-восточный, Ю - южный, ЮЗ - юго-западный, З - западный, СЗ - северо-западный.
Видимость - горизонтальная дальность видимости в метрах или километрах. При видимости от 1 до 10 км при отсутствии осадков обычно наблюдается дымка, при ухудшении видимости до 1 км и менее - туман. В сухую погоду видимость может ухудшаться дымом, пылью или мглою.
Явления - указаны атмосферные явления, наблюдавшиеся в срок или в последний час перед сроком; фигурными скобками обозначены явления, наблюдавшиеся между сроками (за 1-3 часа до срока); квадратными скобками обозначены град или гололедные отложения с указанием их диаметра в мм.
Облачность - указаны через наклонную черту общая и нижняя облачность в баллах и высота нижней границы облаков в метрах; квадратными скобками обозначены формы облаков: Ci - перистые, Cs - перисто-слоистые, Cc - перисто-кучевые, Ac - высококучевые, As - высокослоистые, Sc - слоисто-кучевые, Ns - слоисто-дождевые, Cu - кучевые, Cb - кучево-дождевые. Подробнее классификацию облаков см. в Атласе облаков (PDF).
T - Температура воздуха - температура, измеренная на высоте 2 м над землей.
Td - Температура точки росы - температура, при понижении до которой содержащийся в воздухе водяной пар достигнет насыщения.
f - Относительная влажность воздуха - влажноcть воздуха, измеренная на высоте 2 м над землей.
Te - Эффективная температура - температура, которую ощущает одетый по сезону человек в тени. Характеристика душности погоды. При расчете учитывается влияние влажности воздуха и скорости ветра на теплоощущения человека.
Tes - Эффективная температура на солнце - температура, которую ощущает человек, с поправкой на солнечный нагрев. Характеристика знойности погоды. Зависит от высоты солнца над горизонтом, облачности и скорости ветра. Ночью, в пасмурную погоду, а также при ветре 12 м/с и более поправка равна нулю.
P - Атмосферное давление - приведенное к уровню моря атмосферное давление.
Po - Атмосферное давление - измеренное на уровне метеостанции атмосферное давление.
Tmin - Минимальная температура - минимум температуры воздуха на высоте 2 м над землей.
Tmax - Максимальная температура - максимум температуры воздуха на высоте 2 м над землей.
R - Количество осадков - Количество выпавших осадков за период времени, мм. При наведении курсора мыши на число - период времени, за который выпало указанное количество осадков.
R24 - Количество осадков - Количество выпавших осадков за 24 часа, мм.
S - Снежный покров - Высота снежного покрова, см. При наведении курсора мыши на число - состояние снежного покрова и степень покрытия местности в баллах.